Date String (YYYY-MM-DD hh:mm:ss) UTC,Instrument flags,Ambient pressure (hPa),Sample flow (lpm),Bypass flow (lpm),Sample temperature (°C),Ambient temperature (°C),ASC tube jacket temperature (°C),LED temperature (°C),Box temperature (°C),Sample RH (%),Span deviation,Mass concentration (μg/m³),Mass concentration (μg/m³),Mass concentration (μg/m³)
DateTimeUTC,F1_M11,P_M11,Q1_M11,Q2_M11,T1_M11,T2_M11,T3_M11,T4_M11,T5_M11,U1_M11,ZSPAN_M11,X0_M11,X2_M11,X1_M11
2021-09-12 13:00:00,,0831.0,5.01,0.00,30.1,29.1,00.0,39.1,31.9,22.0,0001.9,0010.96,0005.53,0004.56
2021-09-12 13:01:00,,0831.1,4.99,0.00,30.0,27.4,00.0,39.1,31.4,22.0,0002.1,0009.89,0005.40,0004.45
2021-09-12 13:02:00,,0831.0,5.00,0.00,29.9,26.5,00.0,39.0,31.2,22.1,0001.9,0009.58,0005.34,0004.36
2021-09-12 13:03:00,,0831.0,5.01,0.00,29.8,26.7,00.0,39.0,31.2,22.3,0000.5,0009.60,0005.33,0004.33
2021-09-12 13:04:00,,0831.0,5.00,0.00,29.7,27.1,00.0,39.0,31.2,22.4,0000.0,0009.61,0005.34,0004.34
2021-09-12 13:05:00,,0831.0,5.02,0.00,29.7,27.5,00.0,38.9,31.3,22.4,0000.4,0010.09,0005.37,0004.33
2021-09-12 13:06:00,,0831.1,5.00,0.00,29.7,27.8,00.0,38.9,31.3,22.5,0000.0,0010.39,0005.37,0004.33
2021-09-12 13:07:00,,0831.2,4.99,0.00,29.7,28.0,00.0,38.9,31.4,22.5,0000.0,0010.91,0005.42,0004.33
2021-09-12 13:08:00,,0831.2,5.01,0.00,29.7,28.2,00.0,38.9,31.4,22.5,0000.0,0011.15,0005.43,0004.34
2021-09-12 13:09:00,,0831.2,4.99,0.00,29.7,28.3,00.0,38.9,31.4,22.4,0000.0,0011.27,0005.46,0004.35
2021-09-12 13:10:00,,0831.2,5.00,0.00,29.7,28.5,00.0,38.9,31.5,22.4,0000.0,0011.33,0005.50,0004.35
2021-09-12 13:11:00,,0831.3,5.01,0.00,29.8,28.6,00.0,38.9,31.5,22.5,0000.0,0011.27,0005.50,0004.35
2021-09-12 13:12:00,,0831.2,4.98,0.00,29.8,28.7,00.0,38.9,31.6,22.2,0000.0,0011.26,0005.51,0004.36
2021-09-12 13:13:00,,0831.2,5.00,0.00,29.8,28.8,00.0,38.9,31.6,20.9,0000.4,0011.27,0005.63,0004.50
2021-09-12 13:14:00,,0831.3,5.00,0.00,29.8,28.8,00.0,38.9,31.6,20.8,0002.7,0011.67,0005.80,0004.68
2021-09-12 13:15:00,,0831.3,5.00,0.00,29.9,28.9,00.0,38.9,31.7,20.8,0003.0,0011.98,0005.97,0004.84
2021-09-12 13:16:00,,0831.4,4.99,0.00,29.9,29.0,00.0,38.9,31.7,21.0,0002.8,0011.83,0006.15,0005.00
2021-09-12 13:17:00,,0831.4,5.01,0.00,29.9,29.0,00.0,38.9,31.7,21.0,0003.2,0012.03,0006.30,0005.15
2021-09-12 13:18:00,,0831.4,5.00,0.00,30.0,29.1,00.0,39.0,31.8,21.0,0002.9,0012.74,0006.46,0005.33
2021-09-12 13:19:00,,0831.5,4.99,0.00,30.0,29.1,00.0,39.0,31.8,21.0,0002.9,0012.76,0006.57,0005.50
2021-09-12 13:20:00,,0831.5,5.00,0.00,30.0,29.2,00.0,39.0,31.8,21.0,0002.8,0013.07,0006.72,0005.65
2021-09-12 13:21:00,,0831.5,5.01,0.00,30.0,29.2,00.0,39.0,31.9,21.0,0002.4,0013.97,0006.87,0005.83
2021-09-12 13:22:00,,0831.5,5.00,0.00,30.1,29.2,00.0,39.0,31.9,21.0,0001.9,0014.20,0007.06,0006.00
2021-09-12 13:23:00,,0831.5,4.99,0.00,30.1,29.3,00.0,39.1,31.9,21.0,0001.3,0014.42,0007.24,0006.17
2021-09-12 13:24:00,,0831.5,5.01,0.00,30.1,29.3,00.0,39.1,31.9,21.0,0001.3,0014.49,0007.31,0006.22
2021-09-12 13:25:00,,0831.5,5.00,0.00,30.1,29.2,00.0,39.1,31.9,21.0,0001.2,0014.19,0007.31,0006.23
2021-09-12 13:26:00,,0831.5,5.00,0.00,30.1,27.7,00.0,39.1,31.6,21.1,0001.3,0014.20,0007.39,0006.24
2021-09-12 13:27:00,,0831.6,5.00,0.00,29.9,26.6,00.0,39.1,31.2,21.3,0000.6,0014.40,0007.43,0006.28
2021-09-12 13:28:00,,0831.5,5.01,0.00,29.8,26.7,00.0,39.1,31.3,21.6,-000.0,0014.86,0007.53,0006.34
2021-09-12 13:29:00,,0831.5,5.00,0.00,29.8,27.1,00.0,39.0,31.3,21.6,0000.5,0014.35,0007.57,0006.34
2021-09-12 13:30:00,,0831.5,5.00,0.00,29.7,27.5,00.0,39.0,31.3,21.6,0000.5,0014.72,0007.61,0006.35
2021-09-12 13:31:00,,0831.5,4.99,0.00,29.7,27.8,00.0,39.0,31.4,21.7,0000.2,0015.02,0007.67,0006.37
2021-09-12 13:32:00,,0831.6,5.00,0.00,29.8,28.0,00.0,38.9,31.4,21.7,0000.5,0014.35,0007.70,0006.37
2021-09-12 13:33:00,,0831.7,4.99,0.00,29.8,28.3,00.0,38.9,31.5,21.6,0000.4,0014.42,0007.69,0006.37
2021-09-12 13:34:00,,0831.7,5.00,0.00,29.8,28.4,00.0,38.9,31.5,21.7,0000.7,0014.31,0007.65,0006.34
2021-09-12 13:35:00,,0831.6,5.01,0.00,29.8,28.6,00.0,38.9,31.6,21.7,0000.4,0014.36,0007.65,0006.32
2021-09-12 13:36:00,,0831.6,5.00,0.00,29.9,28.7,00.0,38.9,31.6,21.7,0000.1,0014.39,0007.65,0006.31
2021-09-12 13:37:00,,0831.7,5.00,0.00,29.9,28.8,00.0,38.9,31.6,21.7,-000.3,0014.19,0007.57,0006.30
2021-09-12 13:38:00,,0831.7,4.98,0.00,29.9,28.8,00.0,39.0,31.7,21.7,0000.2,0014.76,0007.55,0006.27
2021-09-12 13:39:00,,0831.7,5.00,0.00,29.9,28.9,00.0,39.0,31.7,21.6,0000.4,0014.45,0007.52,0006.26
2021-09-12 13:40:00,,0831.7,5.00,0.00,30.0,29.0,00.0,39.0,31.7,21.6,0000.2,0014.05,0007.48,0006.25
2021-09-12 13:41:00,,0831.7,4.99,0.00,30.0,29.0,00.0,39.0,31.8,21.6,0000.0,0013.61,0007.51,0006.24
2021-09-12 13:42:00,,0831.7,4.99,0.00,30.0,29.1,00.0,39.0,31.8,21.5,0000.4,0013.56,0007.51,0006.24
2021-09-12 13:43:00,,0831.7,5.01,0.00,30.0,29.1,00.0,39.0,31.8,21.6,0000.2,0013.84,0007.48,0006.25
2021-09-12 13:44:00,,0831.7,4.99,0.00,30.1,29.2,00.0,39.0,31.8,21.6,0000.5,0014.11,0007.45,0006.26
2021-09-12 13:45:00,,0831.7,5.00,0.00,30.1,29.2,00.0,39.1,31.9,21.4,0000.6,0014.60,0007.45,0006.25
2021-09-12 13:46:00,,0831.7,5.00,0.00,30.1,28.2,00.0,39.1,31.7,21.3,0001.1,0015.05,0007.44,0006.26
2021-09-12 13:47:00,,0831.7,5.00,0.00,29.9,26.7,00.0,39.1,31.3,21.4,0001.5,0015.15,0007.40,0006.24
2021-09-12 13:48:00,,0831.6,4.99,0.00,29.8,26.6,00.0,39.0,31.2,21.2,0001.4,0015.21,0007.38,0006.24
2021-09-12 13:49:00,,0831.6,5.01,0.00,29.7,26.9,00.0,39.0,31.2,21.2,0001.1,0014.27,0007.32,0006.23
2021-09-12 13:50:00,,0831.7,4.99,0.00,29.7,27.3,00.0,38.9,31.3,21.3,0001.1,0013.93,0007.27,0006.18
2021-09-12 13:51:00,,0831.7,5.01,0.00,29.7,27.7,00.0,38.9,31.3,21.5,0001.0,0013.93,0007.27,0006.17
2021-09-12 13:52:00,,0831.7,4.99,0.00,29.7,28.0,00.0,38.9,31.4,21.5,0001.3,0013.87,0007.25,0006.15
2021-09-12 13:53:00,,0831.7,5.00,0.00,29.7,28.2,00.0,38.9,31.4,21.5,0001.0,0013.77,0007.26,0006.11
2021-09-12 13:54:00,,0831.7,4.99,0.00,29.7,28.4,00.0,38.9,31.5,21.4,0000.7,0013.41,0007.28,0006.08
2021-09-12 13:55:00,,0831.7,5.01,0.00,29.8,28.5,00.0,38.9,31.5,21.4,0000.7,0013.03,0007.27,0006.04
2021-09-12 13:56:00,,0831.7,5.00,0.00,29.8,28.6,00.0,38.9,31.6,21.5,0000.7,0013.24,0007.27,0006.03
2021-09-12 13:57:00,,0831.7,5.01,0.00,29.8,28.7,00.0,38.9,31.6,21.7,0000.5,0013.18,0007.28,0006.02
2021-09-12 13:58:00,,0831.7,5.01,0.00,29.9,28.8,00.0,38.9,31.7,21.7,0000.3,0013.57,0007.30,0006.00
2021-09-12 13:59:00,,0831.6,5.00,0.00,29.9,28.9,00.0,38.9,31.7,21.4,0000.7,0013.91,0007.37,0005.98
